DW1824 Weather Reports


time (UTC)temp
C
wind
direction
speed
KPH
gust
KPH
rain 1hr
cm
rain 24hr
cm
rain mn
cm
humidity
%
barometer
mb
20260906145333 30 232 0.0 1.6 0.00 0.00 0.00 77 1014.5
20260906144340 29 232 0.0 3.2 0.00 0.00 0.00 79 1014.4
20260906143325 29 266 0.0 3.2 0.00 0.00 0.00 82 1014.5
20260906142331 28 166 0.0 1.6 0.00 0.00 0.00 83 1014.5
20260906141338 28 166 0.0 4.8 0.00 0.00 0.00 84 1014.4
20260906140401 28 120 1.6 6.4 0.00 0.00 0.00 84 1014.4
20260906135326 28 181 0.0 3.2 0.00 0.00 0.00 86 1014.4
20260906134331 28 131 0.0 0.0 0.00 0.00 0.00 88 1014.3
20260906133354 27 131 0.0 1.6 0.00 0.00 0.00 89 1014.4
20260906132339 27 125 0.0 4.8 0.00 0.00 0.00 90 1014.3
20260906131329 27 133 0.0 1.6 0.00 0.00 0.00 90 1014.2
20260906130333 26 130 1.6 3.2 0.00 0.00 0.00 93 1014.0
20260906125338 26 187 0.0 0.0 0.00 0.00 0.00 94 1014.0
20260906124324 25 186 0.0 0.0 0.00 0.00 0.00 94 1013.9
20260906123327 25 186 0.0 0.0 0.00 0.00 0.00 92 1013.7
20260906122331 25 186 0.0 0.0 0.00 0.00 0.00 93 1013.5
20260906121337 25 186 0.0 0.0 0.00 0.00 0.00 93 1013.2
20260906120324 25 187 0.0 0.0 0.00 0.00 0.00 93 1013.1
20260906115329 25 186 0.0 0.0 0.00 0.00 0.00 93 1012.9
20260906114336 25 186 0.0 0.0 0.00 0.00 0.00 93 1012.7
20260906113338 25 186 0.0 0.0 0.00 0.00 0.00 93 1012.7
20260906112324 25 186 0.0 0.0 0.00 0.00 0.00 93 1012.6
20260906111330 25 186 0.0 0.0 0.00 0.00 0.00 93 1012.6
20260906110353 26 186 0.0 0.0 0.00 0.00 0.00 93 1012.7
20260906105336 26 186 0.0 0.0 0.00 0.00 0.00 92 1012.6
20260906104326 26 186 0.0 0.0 0.00 0.00 0.00 92 1012.6
20260906103326 26 186 0.0 0.0 0.00 0.00 0.00 92 1012.6
20260906102332 26 186 0.0 0.0 0.00 0.00 0.00 92 1012.6
20260906101356 26 186 0.0 0.0 0.00 0.00 0.00 92 1012.5
20260906100340 26 186 0.0 1.6 0.00 0.00 0.00 92 1012.3
20260906095325 26 186 0.0 0.0 0.00 0.00 0.00 92 1012.3
20260906094329 26 186 0.0 0.0 0.00 0.00 0.00 91 1012.2
20260906093330 26 186 0.0 0.0 0.00 0.00 0.00 91 1012.2
20260906092336 26 186 0.0 0.0 0.00 0.00 0.00 91 1012.0
20260906091341 26 186 0.0 0.0 0.00 0.00 0.00 90 1012.1
20260906090324 26 186 0.0 0.0 0.00 0.00 0.00 90 1012.1
20260906085330 26 186 0.0 1.6 0.00 0.00 0.00 90 1012.1
20260906084334 26 186 0.0 1.6 0.00 0.00 0.00 90 1012.1
20260906083335 26 186 0.0 0.0 0.00 0.00 0.00 91 1012.0
20260906082341 26 186 0.0 0.0 0.00 0.00 0.00 90 1011.9
20260906081331 26 186 0.0 0.0 0.00 0.00 0.00 90 1012.1
20260906080354 26 186 0.0 1.6 0.00 0.00 0.00 89 1012.2
20260906075339 26 186 0.0 1.6 0.00 0.00 0.00 89 1012.3
20260906074404 26 186 0.0 0.0 0.00 0.00 0.00 89 1012.1
20260906073325 26 186 0.0 1.6 0.00 0.00 0.00 89 1012.2
20260906072330 26 186 0.0 1.6 0.00 0.00 0.00 89 1012.3
20260906071336 27 186 0.0 1.6 0.00 0.00 0.00 89 1012.5
20260906070340 26 186 0.0 1.6 0.00 0.00 0.00 89 1012.7
20260906065329 26 186 0.0 1.6 0.00 0.00 0.00 89 1012.8
20260906064336 27 186 0.0 1.6 0.00 0.00 0.00 88 1012.9
20260906063339 27 201 0.0 1.6 0.00 0.00 0.00 88 1012.8
20260906062345 27 179 0.0 1.6 0.00 0.00 0.00 88 1012.8
20260906061329 27 179 0.0 0.0 0.00 0.00 0.00 88 1012.9
20260906060351 27 179 0.0 0.0 0.00 0.00 0.00 88 1012.9
20260906055334 27 180 0.0 1.6 0.00 0.00 0.00 87 1012.9
20260906054339 27 180 0.0 1.6 0.00 0.00 0.00 87 1012.7
20260906053326 27 160 0.0 0.0 0.00 0.00 0.00 87 1012.6
20260906052332 27 160 0.0 3.2 0.00 0.00 0.00 87 1012.7
20260906051339 27 183 0.0 3.2 0.00 0.00 0.00 87 1012.6
20260906050342 27 170 0.0 1.6 0.00 0.00 0.00 87 1012.8
20260906045327 27 147 0.0 1.6 0.00 0.00 0.00 86 1012.9
20260906044332 27 139 0.0 0.0 0.00 0.00 0.00 86 1013.1
20260906043335 26 169 0.0 3.2 0.00 0.00 0.00 86 1013.1
20260906042327 26 148 1.6 1.6 0.00 0.00 0.00 85 1013.0
20260906041332 26 129 0.0 1.6 0.00 0.00 0.00 84 1013.1
20260906040335 26 128 0.0 3.2 0.00 0.00 0.00 83 1013.0
20260906035342 26 129 1.6 3.2 0.00 0.00 0.00 82 1013.1
20260906034327 26 129 1.6 3.2 0.00 0.00 0.00 82 1013.0
20260906033352 26 360 0.0 1.6 0.00 0.00 0.00 81 1013.0
20260906032336 27 360 0.0 0.0 0.00 0.00 0.00 81 1012.9
20260906031324 27 360 0.0 0.0 0.00 0.00 0.00 80 1012.9
20260906030327 27 360 0.0 1.6 0.00 0.00 0.00 79 1012.8
20260906025334 27 360 0.0 1.6 0.00 0.00 0.00 79 1012.7
20260906024340 27 360 0.0 0.0 0.00 0.00 0.00 78 1012.8
20260906023343 27 360 0.0 0.0 0.00 0.00 0.00 77 1012.5
20260906022348 27 360 0.0 0.0 0.00 0.00 0.00 76 1012.3
20260906021332 27 360 0.0 0.0 0.00 0.00 0.00 75 1012.1
20260906020328 28 360 0.0 1.6 0.00 0.00 0.00 75 1011.9
20260906015338 28 360 0.0 0.0 0.00 0.00 0.00 74 1011.8
20260906014324 28 360 0.0 1.6 0.00 0.00 0.00 74 1011.7
20260906013328 28 360 0.0 1.6 0.00 0.00 0.00 73 1011.6
20260906012333 28 5 0.0 1.6 0.00 0.00 0.00 73 1011.6
20260906011340 28 360 0.0 3.2 0.00 0.00 0.00 72 1011.6
20260906010324 28 39 0.0 1.6 0.00 0.00 0.00 72 1011.4
20260906005329 29 29 0.0 3.2 0.00 0.00 0.00 72 1011.5
20260906004339 29 114 0.0 1.6 0.00 0.00 0.00 71 1011.6
20260906003342 29 30 0.0 3.2 0.00 0.00 0.00 70 1011.7
20260906002326 29 350 1.6 6.4 0.00 0.00 0.00 69 1011.8
20260906001331 30 10 1.6 4.8 0.00 0.00 0.00 69 1011.8
20260906000334 30 51 0.0 3.2 0.00 0.00 0.00 68 1011.9
20260905235340 30 179 1.6 8.0 0.00 0.00 0.00 67 1011.8
20260905234404 31 33 3.2 6.4 0.00 0.00 0.00 66 1011.9
20260905233329 31 106 0.0 6.4 0.00 0.00 0.00 68 1011.7
20260905232336 31 127 0.0 11.3 0.00 0.00 0.00 67 1011.7
20260905231341 31 118 4.8 12.9 0.00 0.00 0.00 65 1011.7
20260905230326 31 124 3.2 12.9 0.00 0.00 0.00 64 1011.4
20260905225331 31 128 8.0 12.9 0.00 0.00 0.00 63 1011.4
20260905224338 32 128 9.7 16.1 0.00 0.00 0.00 62 1011.3
20260905223340 32 126 6.4 20.9 0.00 0.00 0.00 62 1011.3
20260905222329 32 138 16.1 20.9 0.00 0.00 0.00 61 1011.3
20260905221333 32 139 14.5 22.5 0.00 0.00 0.00 61 1011.2
20260905220335 33 126 3.2 6.4 0.00 0.00 0.00 55 1011.1
20260905215340 33 162 1.6 4.8 0.00 0.00 0.00 52 1011.0
20260905214326 33 124 1.6 3.2 0.00 0.00 0.00 55 1011.1
20260905213331 33 124 0.0 4.8 0.00 0.00 0.00 55 1011.3
20260905212356 33 122 3.2 6.4 0.00 0.00 0.00 55 1011.4
20260905211324 32 158 1.6 3.2 0.00 0.00 0.00 59 1011.6
20260905210326 30 211 3.2 4.8 0.00 0.00 0.00 67 1011.4
20260905205352 30 172 3.2 6.4 0.00 0.00 0.00 67 1011.4
20260905204336 30 171 4.8 12.9 0.00 0.00 0.00 69 1011.5
20260905203359 32 195 3.2 6.4 0.00 0.00 0.00 59 1011.6
20260905202343 33 135 3.2 9.7 0.00 0.00 0.00 56 1011.7
20260905201349 33 139 3.2 9.7 0.00 0.00 0.00 54 1011.8
20260905200350 35 130 4.8 6.4 0.00 0.00 0.00 51 1011.9
20260905195334 35 122 1.6 3.2 0.00 0.00 0.00 52 1012.1
20260905194324 35 116 1.6 6.4 0.00 0.00 0.00 53 1012.2
20260905193328 33 300 1.6 4.8 0.00 0.00 0.00 57 1012.4
20260905192335 33 352 1.6 6.4 0.00 0.00 0.00 56 1012.5
20260905191340 33 333 1.6 4.8 0.00 0.00 0.00 55 1012.6
20260905190325 34 64 0.0 6.4 0.00 0.00 0.00 56 1012.7
20260905185329 33 195 1.6 8.0 0.00 0.00 0.00 58 1012.8
20260905184335 33 230 1.6 3.2 0.00 0.00 0.00 58 1013.0
20260905183336 33 80 0.0 3.2 0.00 0.00 0.00 58 1013.2
20260905182326 34 314 1.6 6.4 0.00 0.00 0.00 56 1013.3
20260905181354 34 321 1.6 12.9 0.00 0.00 0.00 57 1013.5
20260905180336 33 316 1.6 9.7 0.00 0.00 0.00 60 1013.7
20260905175341 33 281 1.6 6.4 0.00 0.00 0.00 56 1014.0
20260905174325 33 360 0.0 3.2 0.00 0.00 0.00 60 1014.2
20260905173330 32 327 3.2 6.4 0.00 0.00 0.00 62 1014.3
20260905172336 32 258 1.6 4.8 0.00 0.00 0.00 63 1014.3
20260905171326 33 107 0.0 4.8 0.00 0.00 0.00 58 1014.4
20260905170350 33 149 3.2 4.8 0.00 0.00 0.00 59 1014.5
20260905165334 32 131 3.2 6.4 0.00 0.00 0.00 60 1014.6
20260905164337 32 130 1.6 9.7 0.00 0.00 0.00 61 1014.7
20260905163339 32 120 0.0 3.2 0.00 0.00 0.00 65 1014.7
20260905162325 31 154 0.0 3.2 0.00 0.00 0.00 70 1014.7
20260905161330 31 108 1.6 4.8 0.00 0.00 0.00 68 1014.8
20260905160331 31 120 1.6 4.8 0.00 0.00 0.00 71 1014.8
20260905155334 30 137 1.6 4.8 0.00 0.00 0.00 74 1014.6
20260905154342 30 122 1.6 4.8 0.00 0.00 0.00 77 1014.6
20260905153325 30 137 0.0 0.0 0.00 0.00 0.00 80 1014.7
20260905152330 29 137 0.0 3.2 0.00 0.00 0.00 81 1014.7
20260905151334 29 215 0.0 4.8 0.00 0.00 0.00 83 1014.7
20260905150337 29 341 0.0 4.8 0.00 0.00 0.00 84 1014.7